DELTA 1 DEB

Satellite information

Favourite Embed

Satellite Type and Status

DEBRISIN ORBIT

Key statistics

Satellite DELTA 1 DEB at a glance.

Uptime

21704

Days in orbit

Revolutions

≈ 14.7

Per day

Orbit

SSO

Sun Synchronous Orbit

Inclination

97.8

Latest

Satellite identification and parameters

Extended collection of information and parameters for DELTA 1 DEB.

Object identification

Identified? True

Debris? True

Object name: DELTA 1 DEB

International designator: 1966-008E

Object number (NORAD): 2154

Object ID (CCSDS): 2154

Country: UNITED STATES OF AMERICA (US)

Current information (Y/N): Y

RCS size: SMALL

Orbital parameters

Period: 97.918 minutes

Inclination: 97.8404 deg

SMA: 7037.218 km

Apoapsis: 691.834 km

Periapsis: 626.331 km

RAAN: 310.5901 deg

Eccentricy: 0.004654

Argument of periapsis: 337.4861 deg

Mean anomaly: 22.4304 deg

Mean motion: 14.70622795 rev/day

Mean motion (dot): 0.00000794 rev/day2

B* drag term: 0.00013651 1/REarth

Two-line elements (TLE)

Creation date: July 6, 2025, 6:05 p.m.

Reference frame: TEME

Reference center: EARTH

Epoch: July 6, 2025, 8:04 a.m. UTC

TLE line 0: 0 DELTA 1 DEB

TLE line 1: 1 02154U 66008E 25187.33624952 .00000794 00000-0 13651-3 0 9998

TLE line 2: 2 02154 97.8404 310.5901 0046540 337.4861 22.4304 14.70622795128162

Live tracking on map

Real-time ground track for satellite DELTA 1 DEB.

In-orbit conjunctions

A list of the most updated potential collisions computed for object DELTA 1 DEB.

Target Orbit TCA Probability of collision Miss distance Type
INTERCOSMOS 24 HEO 2025-04-22 21:08:56 0.000199699 364.0 (m) PAYLOAD
COSMOS 1900 DEB LEO 2025-01-05 16:53:20 0.0004231195 75.0 (m) DEBRIS

Associated space launch

The ESSA series was the second generation of US meterological satellites after the TIROS (Television & Infra-Red Observation Satellite) series. They were also called OT (Operational TIROS), TOS (TIROS Operational Satellite).

DELTA 1 DEB was lifted into orbit during the mission ‘Thor Delta C | ESSA 1’, on board a Thor Delta C space rocket.

The launch took place on Feb. 3, 1966, 7:41 a.m. from Space Launch Complex 17A.

For more information about the launch, click the button.

Launch to space Thor Delta C | ESSA 1
Thor Delta C | ESSA 1

Agency: N/A

Status: Launch Successful

Launch date: Feb. 3, 1966, 7:41 a.m. UTC

Rocket: Thor Delta C

Launch pad: Space Launch Complex 17A

Location: Cape Canaveral SFS, FL, USA

...

Latest news about this satellite

There are no fresh news available about this satellite. Check back as we update our databases every day.


Newsletter sign-up

Weekly statistics, charts and insights to help you stay on top of the space industry.